Home   Weather   St. Croix Falls   Past weeks

Flag for USA Past Weather in St. Croix Falls, Wisconsin, USA — Yesterday and Last 2 Weeks

Now
26 °F

Overcast.


Feels Like: 21 °F
Forecast: 22 / 36 °F
Wind: 5 mph from Southwest

Location: L O Simenstad Municipal Airport

Current Time: Feb 26, 2017 at 6:28:41 am

Latest Report: Feb 26, 2017 at 5:55 am


Visibility: 10 mi

Pressure: 29.74 "Hg

Humidity: 74%

Dew Point: 19 °F

Location of St. Croix FallsLocation

Past Weather in St. Croix Falls — Graph

°F

St. Croix Falls Temperature Yesterday

Maximum temperature yesterday: 33 °F (at 3:35 pm)
Minimum temperature yesterday: 14 °F (at 6:35 am)
Average temperature yesterday: 24 °F

High & Low Weather Summary for the Past Weeks

 TemperatureHumidityPressure
High58 °F (Feb 19, 2:15 pm)100% (Feb 12, 12:35 am)30.34 "Hg (Feb 12, 12:35 am)
Low14 °F (Feb 25, 6:35 am)29% (Feb 14, 3:55 pm)29.45 "Hg (Feb 17, 2:35 pm)
Average35 °F72%29.87 "Hg
* Reported Feb 11 5:15 am — Feb 26 5:15 am, St. Croix Falls, Weather by CustomWeather, © 2017

Note: Actual official high and low records may vary slightly from our data, if they occured in-between our weather recording intervals... More about our weather records

Advertising

St. Croix Falls Weather History for the Previous 24 Hours

Scroll right to see more
 ConditionsComfort  
Time TempWeatherWind HumidityBarometerVisibility
5:15 am
Sun, Feb 26
26 °FOvercast.6 mph73%29.75 "Hg10 mi
4:35 am26 °FOvercast.6 mph72%29.76 "Hg10 mi
3:55 am26 °FOvercast.8 mph72%29.76 "Hg10 mi
3:15 am26 °FMostly cloudy.8 mph71%29.77 "Hg10 mi
2:55 am26 °FPartly cloudy.8 mph71%29.77 "Hg10 mi
2:35 am26 °FMostly cloudy.8 mph71%29.77 "Hg10 mi
1:55 am26 °FOvercast.8 mph71%29.79 "Hg10 mi
1:15 am26 °FMostly cloudy.8 mph70%29.80 "Hg10 mi
12:55 am25 °FMostly cloudy.9 mph71%29.81 "Hg10 mi
12:15 am25 °FPassing clouds.7 mph73%29.82 "Hg10 mi
11:55 pm
Sat, Feb 25
25 °FPassing clouds.6 mph75%29.83 "Hg10 mi
11:35 pm25 °FPassing clouds.8 mph74%29.84 "Hg10 mi
10:55 pm25 °FClear.6 mph75%29.84 "Hg10 mi
10:15 pm26 °FPassing clouds.9 mph74%29.84 "Hg10 mi
9:55 pm27 °FClear.10 mph73%29.84 "Hg10 mi
9:15 pm28 °FPartly cloudy.9 mph70%29.85 "Hg10 mi
8:55 pm28 °FMostly cloudy.13 mph72%29.85 "Hg10 mi
8:15 pm30 °FPassing clouds.14 mph69%29.86 "Hg10 mi
7:55 pm31 °FPassing clouds.15 mph64%29.85 "Hg10 mi
7:35 pm31 °FOvercast.10 mph62%29.85 "Hg10 mi
6:55 pm31 °FOvercast.8 mph61%29.87 "Hg10 mi
6:15 pm31 °FOvercast.10 mph60%29.87 "Hg10 mi
5:55 pm31 °FOvercast.10 mph61%29.88 "Hg10 mi
5:15 pm32 °FOvercast.13 mph55%29.88 "Hg10 mi
4:55 pm32 °FOvercast.10 mph55%29.89 "Hg10 mi
4:15 pm32 °FOvercast.13 mph49%29.90 "Hg10 mi
3:35 pm33 °FPartly sunny.10 mph45%29.90 "Hg10 mi
2:55 pm33 °FScattered clouds.10 mph45%29.90 "Hg10 mi
2:15 pm32 °FSunny.13 mph45%29.91 "Hg10 mi
1:55 pm32 °FSunny.13 mph43%29.91 "Hg10 mi
1:15 pm30 °FScattered clouds.10 mph42%29.92 "Hg10 mi
12:55 pm29 °FSunny.14 mph40%29.92 "Hg10 mi
12:15 pm27 °FSunny.13 mph41%29.94 "Hg10 mi
11:55 am27 °FSunny.15 mph42%29.94 "Hg10 mi
11:35 am26 °FSunny.14 mph43%29.94 "Hg10 mi
10:55 am24 °FSunny.12 mph47%29.94 "Hg10 mi
10:15 am21 °FSunny.10 mph46%29.94 "Hg10 mi
9:55 am20 °FSunny.8 mph48%29.95 "Hg10 mi
9:15 am17 °FSunny.12 mph52%29.96 "Hg10 mi
8:55 am17 °FSunny.12 mph56%29.95 "Hg10 mi
8:15 am15 °FSunny.12 mph61%29.94 "Hg10 mi
7:55 am15 °FSunny.13 mph64%29.94 "Hg10 mi
7:15 am14 °FSunny.10 mph68%29.93 "Hg10 mi
6:35 am14 °FClear.14 mph69%29.92 "Hg10 mi
Weather by CustomWeather, © 2017

See weather overviewHow to use our weather pages

LIVE ANNULAR SOLAR ECLIPSE – Watch the eclipse as it happens